Location: Bishop�s Knoyle
(51.0728°N, 2.1714°W)
Time: 17:29:06
(UTC+00:00)

Exosat Rocket - Pass Details

Date: 18 September 2020
Orbit: 760 x 2514 km, 72.3° (Epoch: 31 October)

Event Time Altitude Azimuth Distance (km) Brightness Sun altitude
Rises 20:59:32 0° 210° (SSW) 3,599 6.9 -24.8°
Reaches altitude 10° 21:02:12 10° 212° (SSW) 2,512 6.1 -25.1°
Maximum altitude 21:07:39 77° 299° (WNW) 801 3.6 -25.8°
Drops below altitude 10° 21:12:39 10° 26° (NNE) 2,317 6.1 -26.4°
Sets 21:15:02 0° 28° (NNE) 3,296 7.0 -26.6°
